Location: Fort Wayne
(41.1310°N, 85.1290°W)
Time: 16:38:59
(UTC-04:00)

BREEZE-M DEB (TANK) - Visible Passes

Search period start: 22 May 2015 00:00
Search period end: 01 June 2015 00:00
Orbit: 288 x 13523 km, 49.6° (Epoch: 21 May)

Date Brightness Start Highest point End Pass type
(mag) Time Alt. Az. Time Alt. Az. Time Alt. Az.
22 May 7.5 02:27:08 10° SW 04:16:45 89° NNW 04:37:39 10° ENE visible
22 May 8.4 23:20:45 10° S 00:57:25 52° SE 01:38:11 10° ENE visible
23 May 7.0 04:19:42 10° WSW 05:50:54 72° NNW 06:04:57 10° ENE visible
23 May 8.8 21:20:14 10° ESE 21:31:54 12° ESE 22:23:03 10° ENE visible
24 May 8.0 00:46:03 10° SSW 02:37:16 74° SE 03:06:54 10° ENE visible
24 May 8.5 22:01:15 10° SSE 23:13:12 34° ESE 00:04:12 10° ENE visible
25 May 7.5 02:23:54 10° SW 04:14:03 85° NNW 04:34:30 10° ENE visible
25 May 8.4 23:13:52 10° S 00:54:30 56° SE 01:35:02 10° ENE visible
26 May 7.0 04:18:49 10° WSW 05:48:00 71° NNW 06:01:38 10° ENE visible
26 May 8.7 21:01:51 10° ESE 21:28:54 16° ESE 22:23:45 10° ENE visible
27 May 8.0 00:40:53 10° SSW 02:34:08 79° SE 03:03:23 10° ENE visible
27 May 8.5 21:51:19 10° SSE 23:09:43 38° ESE 00:01:08 10° ENE visible
28 May 7.5 02:20:18 10° SW 04:10:45 82° NNW 04:30:46 10° ENE visible
28 May 8.3 23:06:53 10° S 00:50:53 61° SE 01:31:14 10° ENE visible
29 May 7.0 04:17:27 10° WSW 05:44:31 69° NNW 05:57:44 10° ENE visible
29 May 8.7 20:45:51 10° SE 21:25:00 20° ESE 22:22:14 10° ENE visible
30 May 8.0 00:35:24 10° SSW 02:30:22 82° SE 02:59:16 10° ENE visible
30 May 8.4 21:41:46 10° SSE 23:05:31 42° ESE 23:57:17 10° ENE visible
31 May 7.5 02:16:18 10° SW 04:06:51 80° NNW 04:26:28 10° ENE visible
